Location: New Frontier Mobile Home Park
(32.8448°N, 116.9675°W)
Time: 23:13:15
(UTC+00:00)

SPOT 3 Rocket - Pass Details

Date: 14 July 2020
Orbit: 779 x 795 km, 98.8° (Epoch: 05 August)

Event Time Altitude Azimuth Distance (km) Brightness Sun altitude
Exits shadow 03:32:30 - 138° (SE) 2,566 5.6 -7.3°
Reaches altitude 10° 03:33:05 10° 135° (SE) 2,352 5.4 -7.4°
Maximum altitude 03:37:46 35° 71° (ENE) 1,252 4.3 -8.2°
Drops below altitude 10° 03:42:29 10° 6° (N) 2,368 6.4 -9.0°
Sets 03:44:59 0° 358° (N) 3,301 7.3 -9.5°
